Weather in Yemelyanovka

Russia / Orenburg Oblast     53°14′04″N   53°43′54″E
temp.,
°C
wind,
m/s
gust,
m/s
humid.,
%
clouds,
%
prec.,
mm/h
press.,
hPa
HPBL,
m
7 march, sun
sun723:00−11nnw2295100 0.0 101421
02:00−12nne2391100 0.0 101227
05:00−13nne3387100 0.0 101263
08:00−15n2382100 0.0 101220
11:00−14nw228650 0.0 101281
14:00−11wnw34850 0.0 1012252
17:00−11wsw24931 0.0 1012105
20:00−13ssw339766 0.1 101343
8 march, mon
mon823:00−13ssw489682 0.1 1013157
02:00−13ssw6119599 0.1 1010267
05:00−10ssw9169299 0.3 1007561
08:00−8ssw101892100 0.8 1004815
11:00−5sw121993100 1.7 10031157
14:00−3sw101591100 0.8 10041219
17:00−3wsw91490100 1.8 10061127
20:00−5sw51285100 0.2 1007311
9 march, tue
tue923:00−5ssw4897100 0.4 1007250
02:00−3ssw61296100 1.1 1006556
05:00−3sw71395100 2.3 1004680
08:00−4wsw61195100 0.9 1004629
11:00−6w61092100 1.1 1007640
14:00−7w478698 0.0 1009571
17:00−8wnw229299 0.0 100964
20:00−11nnw2295100 0.0 100821
10 march, wed
wed1023:00−11n2394100 0.0 100861
02:00−13nw3395100 0.0 100830
05:00−16nw349774 0.0 100926
08:00−19wnw339884 0.0 101025
11:00−16nw469592 0.0 1012259
14:00−14wnw4693100 0.0 1013347
17:00−13wnw5791100 0.1 1014564
20:00−17nw4797100 0.1 1016147
11 march, thu
thu1123:00−21nnw339699 0.1 101830
02:00−22nnw229895 0.1 101926
05:00−23nw229992 0.1 102123
08:00−27nw2210086 0.0 102219
11:00−24w239549 0.0 1024133
14:00−22w45930 0.0 1024247
17:00−20wsw48920 0.0 1024340
20:00−22wsw349951 0.0 102543